Groningen, Netherlands

1:36 PM CET on January 18, 2017 (GMT +0100)
Eelde

Weather History for EHGG - March, 2013

Change the Weather History Date:

Saturday, March 9, 2013

  Actual Average Record
Temperature  
Mean Temperature 33 °F -  
Max Temperature 34 °F 48 °F 66 °F (2014)
Min Temperature 32 °F 34 °F 26 °F (2005)
Degree Days  
Heating Degree Days 32    
Moisture  
Dew Point 32 °F    
Average Humidity 93    
Maximum Humidity 100    
Minimum Humidity 83    
Precipitation  
Precipitation 0.31 in 0.07 in - ()
Sea Level Pressure  
Sea Level Pressure 29.55 in    
Wind  
Wind Speed 15 mph ()    
Max Wind Speed 18 mph    
Max Gust Speed 28 mph    
Visibility 2.8 miles    
Events Rain , Snow    
Averages and records for this station are not official NWS values.
T = Trace of Precipitation, MM = Missing Value Source: Averaged Metar Reports

Daily Weather History Graph

Daily Weather History Graph

Search for Another Location

Airport or City:

Trip Planner

Search our weather history database for the weather conditions in past years. The results will help you decide how hot, cold, wet, or windy it might be!

Date:

Astronomy

Mar. 09, 2013 Rise Set
Actual Time 7:02 AM CET 6:27 PM CET
Civil Twilight 6:27 AM CET 7:01 PM CET
Nautical Twilight 5:47 AM CET 7:41 PM CET
Astronomical Twilight 5:06 AM CET 8:23 PM CET
Moon 5:32 AM CET (3/9) 3:57 PM CET (3/9)
Length of Visible Light 12h 33m
Length of Day
11h 24m
Waning Crescent, 7% of the Moon is Illuminated
Mar 9
Waning Crescent
Mar 11
New
Mar 19
First Quarter
Mar 27
Full
Apr 3
Last Quarter

Hourly Weather History & Observations

Time (CET) Temp. Windchill Dew Point Humidity Pressure Visibility Wind Dir Wind Speed Gust Speed Precip Events Conditions
12:25 AM 35.6 °F 26.2 °F 32.0 °F 87% 29.59 in 3.7 mi East 15.0 mph - N/A Rain Light Rain
12:55 AM 35.6 °F 26.2 °F 32.0 °F 87% 29.59 in 4.3 mi East 15.0 mph - N/A   Partly Cloudy
1:00 AM 35 °F - 32 °F 83% 29.61 in 4 mi East 15.7 mph - - Rain Rain
1:25 AM 35.6 °F 25.9 °F 32.0 °F 87% 29.59 in 4.3 mi East 16.1 mph - N/A   Overcast
1:55 AM 35.6 °F 25.9 °F 32.0 °F 87% 29.59 in 4.3 mi East 16.1 mph - N/A   Overcast
2:25 AM 35.6 °F 25.9 °F 32.0 °F 87% 29.59 in 3.7 mi East 16.1 mph - N/A   Overcast
2:55 AM 35.6 °F 25.9 °F 32.0 °F 87% 29.59 in 3.7 mi East 16.1 mph - N/A   Overcast
3:25 AM 35.6 °F 25.2 °F 32.0 °F 87% 29.56 in 3.7 mi East 18.4 mph - N/A   Light Drizzle
3:55 AM 33.8 °F 23.9 °F 32.0 °F 93% 29.56 in 3.1 mi East 15.0 mph - N/A   Light Drizzle
4:00 AM 35 °F - 32 °F 83% 29.58 in 3 mi East 15.7 mph - - Rain Drizzle
4:25 AM 33.8 °F 23.5 °F 32.0 °F 93% 29.56 in - East 16.1 mph 27.6 mph N/A Rain Drizzle
4:55 AM 33.8 °F 23.2 °F 32.0 °F 93% 29.56 in - East 17.3 mph - N/A Rain Light Rain
5:25 AM 33.8 °F 23.5 °F 32.0 °F 93% 29.56 in - East 16.1 mph - N/A Rain Drizzle
5:55 AM 33.8 °F 23.2 °F 32.0 °F 93% 29.56 in - East 17.3 mph - N/A   Drizzle
6:25 AM 33.8 °F 23.2 °F 32.0 °F 93% 29.53 in - East 17.3 mph - N/A Rain Light Rain
6:55 AM 33.8 °F 23.2 °F 32.0 °F 93% 29.53 in - East 17.3 mph - N/A Rain Light Rain
7:00 AM 34 °F - 32 °F 87% 29.56 in 3 mi East 17.9 mph - - Rain Light Rain
7:25 AM 33.8 °F 23.2 °F 32.0 °F 93% 29.53 in - East 17.3 mph - N/A   Drizzle
7:55 AM 33.8 °F 23.5 °F 32.0 °F 93% 29.53 in - East 16.1 mph - N/A Rain Light Rain
8:25 AM 33.8 °F 23.5 °F 32.0 °F 93% 29.53 in - East 16.1 mph - N/A Rain Light Rain
8:55 AM 33.8 °F 23.2 °F 32.0 °F 93% 29.56 in 1.8 mi East 17.3 mph - N/A Rain Light Rain Showers
9:25 AM 33.8 °F 22.8 °F 32.0 °F 93% 29.56 in 1.7 mi East 18.4 mph - N/A Rain , Snow Light Rain
9:55 AM 33.8 °F 22.8 °F 32.0 °F 93% 29.53 in - East 18.4 mph - N/A Rain Light Rain
10:00 AM 34 °F - 32 °F 89% 29.56 in 2 mi East 17.9 mph - - Rain Rain
10:25 AM 33.8 °F 22.8 °F 32.0 °F 93% 29.56 in - East 18.4 mph - N/A Rain Light Rain
10:55 AM 33.8 °F 23.2 °F 32.0 °F 93% 29.56 in 2.8 mi East 17.3 mph - N/A Rain Light Rain
11:25 AM 33.8 °F 23.9 °F 32.0 °F 93% 29.56 in 3.1 mi East 15.0 mph - N/A Rain Light Rain
11:55 AM 33.8 °F 23.5 °F 32.0 °F 93% 29.53 in 3.1 mi East 16.1 mph - N/A Rain Light Rain
12:25 PM 33.8 °F 23.2 °F 32.0 °F 93% 29.53 in 3.1 mi East 17.3 mph - N/A Rain Light Rain
12:55 PM 33.8 °F 23.5 °F 33.8 °F 100% 29.53 in 2.8 mi East 16.1 mph - N/A Rain Light Rain
1:25 PM 35.6 °F 25.9 °F 32.0 °F 87% 29.53 in 4.3 mi East 16.1 mph - N/A Rain Light Rain
1:55 PM 35.6 °F 25.9 °F 33.8 °F 93% 29.53 in 2.8 mi East 16.1 mph - N/A Rain Light Rain Showers
2:25 PM 35.6 °F 26.6 °F 33.8 °F 93% 29.53 in 3.1 mi East 13.8 mph - N/A Rain Light Rain
2:55 PM 35.6 °F 25.9 °F 33.8 °F 93% 29.53 in 3.1 mi East 16.1 mph - N/A Rain Light Rain
3:25 PM 35.6 °F 26.2 °F 33.8 °F 93% 29.53 in 3.1 mi East 15.0 mph - N/A Rain Light Rain
3:55 PM 33.8 °F 23.9 °F 32.0 °F 93% 29.53 in 4.3 mi ENE 15.0 mph - N/A Rain Light Rain
4:00 PM 34 °F - 33 °F 93% 29.54 in 4 mi East 13.4 mph - - Rain Light Rain
4:25 PM 33.8 °F 23.9 °F 32.0 °F 93% 29.50 in 2.5 mi East 15.0 mph - N/A Rain Light Rain
4:55 PM 33.8 °F 23.5 °F 32.0 °F 93% 29.53 in 1.4 mi East 16.1 mph - N/A Rain , Snow Light Snow
5:25 PM 33.8 °F 24.8 °F 32.0 °F 93% 29.50 in 1.6 mi East 12.7 mph - N/A Snow Light Snow
5:55 PM 33.8 °F 23.5 °F 32.0 °F 93% 29.50 in - East 16.1 mph - N/A   Overcast
6:25 PM 33.8 °F 23.5 °F 32.0 °F 93% 29.53 in - ENE 16.1 mph - N/A   Overcast
6:55 PM 33.8 °F 23.9 °F 32.0 °F 93% 29.53 in 1.9 mi ENE 15.0 mph - N/A Rain , Snow Light Snow Grains
7:00 PM 33 °F - 32 °F 93% 29.55 in 2 mi ENE 13.4 mph - - Snow Snow Grains
7:25 PM 33.8 °F 23.5 °F 32.0 °F 93% 29.53 in - ENE 16.1 mph - N/A Rain , Snow Light Snow
7:55 PM 32.0 °F 21.6 °F 32.0 °F 100% 29.53 in - ENE 15.0 mph - N/A   Overcast
8:25 PM 32.0 °F 21.6 °F 32.0 °F 100% 29.53 in 2.2 mi ENE 15.0 mph - N/A   Light Drizzle
8:55 PM 32.0 °F 21.2 °F 32.0 °F 100% 29.53 in - ENE 16.1 mph - N/A Snow Light Snow Grains
9:25 PM 32.0 °F 21.6 °F 32.0 °F 100% 29.53 in - ENE 15.0 mph - N/A Snow Light Snow
9:55 PM 32.0 °F 21.6 °F 32.0 °F 100% 29.53 in 1.4 mi ENE 15.0 mph - N/A Snow Light Snow
10:00 PM 32 °F - 31 °F 95% 29.54 in 1 mi ENE 15.7 mph - - Snow Snow
10:25 PM 32.0 °F 22.1 °F 32.0 °F 100% 29.53 in 1.3 mi ENE 13.8 mph - N/A Snow Light Snow
10:55 PM 32.0 °F 22.1 °F 32.0 °F 100% 29.53 in 1.3 mi ENE 13.8 mph - N/A Snow Light Snow
11:25 PM 32.0 °F 22.1 °F 32.0 °F 100% 29.53 in 1.7 mi NE 13.8 mph - N/A Snow Light Snow
11:55 PM 32.0 °F 22.1 °F 32.0 °F 100% 29.53 in 1.9 mi NE 13.8 mph - N/A Snow Light Snow